Location: Newark
(13.8625°N, 100.5144°E)
Time: 15:17:01
(UTC+00:00)

LightSail 2 - Pass Details

Date: 16 May 2021
Orbit: 685 x 700 km, 24.0° (Epoch: 11 June)

Event Time Altitude Azimuth Distance (km) Brightness Sun altitude
Exits shadow 21:30:21 23° 294° (WNW) 1,447 6.4 -18.8°
Maximum altitude 21:33:30 83° 20° (NNE) 695 5.1 -18.1°
Drops below altitude 10° 21:38:32 10° 109° (ESE) 2,126 8.2 -17.0°
Sets 21:40:56 0° 110° (ESE) 3,039 9.1 -16.5°
